Weather History for Cordova, AK

Change the Weather History Date:

Thursday, July 11, 2013

  Actual Average Record
Temperature  
Mean Temperature 55 °F -  
Max Temperature 66 °F 60 °F 78 °F (1953)
Min Temperature 44 °F 47 °F 33 °F (1996)
Degree Days  
Heating Degree Days 10    
Growing Degree Days 5 (Base 50)    
Moisture  
Dew Point 51 °F    
Average Humidity 83    
Maximum Humidity 100    
Minimum Humidity 61    
Precipitation  
Precipitation 0.00 in - - ()
Sea Level Pressure  
Sea Level Pressure 29.93 in    
Wind  
Wind Speed 1 mph (SSW)    
Max Wind Speed 7 mph    
Max Gust Speed -    
Visibility 9 miles    
Events Fog    
Averages and records for this station are not official NWS values.
T = Trace of Precipitation, MM = Missing Value Source: NWS Daily Summary

Daily Weather History Graph

Daily Weather History Graph

Search for Another Location

Airport:

Trip Planner

Search our weather history database for the weather conditions in past years. The results will help you decide how hot, cold, wet, or windy it might be!

Date:

Astronomy

Jul. 11, 2013 Rise Set
Actual Time 4:34 AM AKDT 10:59 PM AKDT
Civil Twilight 3:04 AM AKDT 12:27 AM AKDT
Nautical Twilight Sun does not rise Sun does not rise
Astronomical Twilight Sun does not rise Sun does not rise
Moon 9:20 AM AKDT (7/11) 11:17 PM AKDT (7/11)
Length of Visible Light 21h 23m
Length of Day
18h 25m
Waxing Crescent, 11% of the Moon is Illuminated
Jul 11
Waxing Crescent
Jul 15
First Quarter
Jul 22
Full
Jul 29
Last Quarter
Aug 6
New

Hourly Weather History & Observations

Time (AKDT) Temp. Dew Point Humidity Pressure Visibility Wind Dir Wind Speed Gust Speed Precip Events Conditions
12:08 AM 53.6 °F 48.2 °F 82% 29.94 in 10.0 mi Calm Calm - N/A   Mostly Cloudy
12:53 AM 53.1 °F 48.9 °F 86% 29.95 in 10.0 mi Calm Calm - N/A   Mostly Cloudy
1:53 AM 53.1 °F 48.9 °F 86% 29.94 in 10.0 mi Calm Calm - N/A   Mostly Cloudy
2:53 AM 48.9 °F 46.9 °F 93% 29.94 in 10.0 mi Calm Calm - N/A   Scattered Clouds
3:53 AM 48.0 °F 45.0 °F 89% 29.94 in 10.0 mi Calm Calm - N/A   Partly Cloudy
4:53 AM 46.0 °F 44.1 °F 93% 29.94 in 10.0 mi Calm Calm - N/A   Scattered Clouds
5:04 AM 44.6 °F 44.6 °F 100% 29.94 in 10.0 mi Calm Calm - N/A   Mostly Cloudy
5:45 AM 46.4 °F 44.6 °F 93% 29.94 in 10.0 mi Calm Calm - N/A   Mostly Cloudy
5:53 AM 48.0 °F 46.0 °F 93% 29.94 in 10.0 mi Calm Calm - N/A   Mostly Cloudy
6:53 AM 52.0 °F 50.0 °F 93% 29.94 in 10.0 mi ENE 3.5 mph - N/A   Overcast
7:14 AM 51.8 °F 50.0 °F 94% 29.93 in 5.0 mi Calm Calm - N/A   Overcast
7:24 AM 53.6 °F 51.8 °F 94% 29.93 in 1.8 mi Calm Calm - N/A   Overcast
7:36 AM 51.8 °F 51.8 °F 100% 29.93 in 0.5 mi Calm Calm - N/A Fog Fog
7:53 AM 52.0 °F 51.1 °F 97% 29.93 in 0.8 mi Calm Calm - N/A   Overcast
8:03 AM 51.8 °F 51.8 °F 100% 29.93 in 2.0 mi Calm Calm - N/A   Mostly Cloudy
8:11 AM 51.8 °F 51.8 °F 100% 29.93 in 7.0 mi Calm Calm - N/A   Overcast
8:46 AM 55.4 °F 51.8 °F 88% 29.92 in 10.0 mi Calm Calm - N/A   Partly Cloudy
8:53 AM 57.0 °F 51.1 °F 81% 29.92 in 10.0 mi Calm Calm - N/A   Scattered Clouds
9:53 AM 57.9 °F 53.1 °F 84% 29.92 in 10.0 mi Calm Calm - N/A   Scattered Clouds
10:53 AM 61.0 °F 52.0 °F 72% 29.92 in 10.0 mi SW 3.5 mph - N/A   Scattered Clouds
11:53 AM 63.0 °F 52.0 °F 67% 29.92 in 10.0 mi WSW 5.8 mph - N/A   Scattered Clouds
12:53 PM 66.0 °F 53.1 °F 63% 29.92 in 10.0 mi Variable 3.5 mph - N/A   Scattered Clouds
1:53 PM 66.0 °F 54.0 °F 65% 29.93 in 10.0 mi Variable 6.9 mph - N/A   Partly Cloudy
2:53 PM 66.0 °F 54.0 °F 65% 29.92 in 10.0 mi SSW 6.9 mph - N/A   Scattered Clouds
3:53 PM 66.0 °F 53.1 °F 63% 29.92 in 10.0 mi WSW 6.9 mph - N/A   Scattered Clouds
4:53 PM 64.9 °F 52.0 °F 63% 29.93 in 10.0 mi SSW 6.9 mph - N/A   Scattered Clouds
5:53 PM 64.9 °F 51.1 °F 61% 29.93 in 10.0 mi WSW 4.6 mph - N/A   Partly Cloudy
6:53 PM 64.0 °F 54.0 °F 70% 29.92 in 10.0 mi South 6.9 mph - N/A   Partly Cloudy
7:53 PM 64.0 °F 55.0 °F 73% 29.92 in 10.0 mi South 4.6 mph - N/A   Partly Cloudy
8:53 PM 63.0 °F 55.0 °F 75% 29.92 in 10.0 mi SSW 3.5 mph - N/A   Partly Cloudy
9:53 PM 61.0 °F 55.0 °F 81% 29.92 in 10.0 mi Calm Calm - N/A   Partly Cloudy
10:53 PM 55.0 °F 48.0 °F 77% 29.94 in 8.0 mi Calm Calm - N/A   Partly Cloudy
11:53 PM 52.0 °F 46.9 °F 83% 29.94 in 10.0 mi Calm Calm - N/A   Scattered Clouds